sat.trackr.live / text

‹ back to catalog

PISAT

NORAD 41784 · 2016-059B

PAYLOAD ACTIVE UNKNOWN

§ Identity

Operator
Country
IND
Launch date
2016-09-26
Launch site
SRILR
Launch vehicle
Mass (kg)
RCS (m²)
0.15

Purposes: science, tech_demo

External: N2YO · Heavens-Above · Gunter

§ Orbital elements

Epoch: 2026-09-18T22:25:05.230848Z

Period
98.02 min
Inclination
97.8252°
Eccentricity
0.0027454
Mean motion
14.69129661 rev/d
Perigee alt
644.5 km
Apogee alt
683.2 km
Semi-major
7,042.0 km
B*
1.0799e-4
RAAN
258.3977°
Arg perigee
265.9754°
Mean anomaly
93.8313°
Rev number
53,350

§ Raw data

PISAT1 41784U 16059B   26261.93408832  .00000591  00000+0  10799-3 0  99922 41784  97.8252 258.3977 0027454 265.9754  93.8313 14.69129661533508

JSON: /api/v1/satellites/41784 · /tle

For live sub-satellite position, see the globe view (requires WebGL).

§ Visibility from observer

Set your observer location to see the next 7 days of passes ≥ 10°. The values pass through the URL so the page stays shareable.

No JS? Fill the form by hand. The geolocation button needs JavaScript.